Time,TemperatureF,DewpointF,PressureIn,WindDirection,WindDirectionDegrees,WindSpeedMPH,WindSpeedGustMPH,Humidity,HourlyPrecipIn,Conditions,Clouds,dailyrainin,SoftwareType,DateUTC
2013-04-14 00:00:00,43.9,33.7,29.95,SSW,204,0.0,1.0,67,0.00,,---,0.00,VWS V14.01,2013-04-14 04:00:00,
2013-04-14 00:02:00,43.9,33.7,29.95,SSW,204,0.0,0.0,67,0.00,,---,0.00,VWS V14.01,2013-04-14 04:02:00,
2013-04-14 00:07:00,43.9,34.0,29.95,South,186,0.0,2.0,68,0.00,,---,0.00,VWS V14.01,2013-04-14 04:07:00,
2013-04-14 00:10:00,43.9,34.0,29.95,SSE,157,0.0,3.0,68,0.00,,---,0.00,VWS V14.01,2013-04-14 04:10:00,
2013-04-14 00:15:00,43.9,33.7,29.95,SE,139,0.0,0.0,67,0.00,,---,0.00,VWS V14.01,2013-04-14 04:15:00,
2013-04-14 00:16:00,43.9,33.7,29.95,SE,139,0.0,0.0,67,0.00,,---,0.00,VWS V14.01,2013-04-14 04:16:00,
2013-04-14 00:23:00,43.9,33.7,29.95,SE,139,1.0,2.0,67,0.00,,---,0.00,VWS V14.01,2013-04-14 04:23:00,
2013-04-14 00:28:00,44.1,33.9,29.96,SSE,153,0.0,2.0,67,0.00,,---,0.00,VWS V14.01,2013-04-14 04:28:00,
2013-04-14 00:33:00,44.1,34.2,29.96,SSE,153,0.0,1.0,68,0.00,,---,0.00,VWS V14.01,2013-04-14 04:33:00,
2013-04-14 00:38:00,44.1,34.2,29.96,SSE,153,0.0,1.0,68,0.00,,---,0.00,VWS V14.01,2013-04-14 04:38:00,
2013-04-14 00:43:00,44.1,34.2,29.96,SSE,153,0.0,2.0,68,0.00,,---,0.00,VWS V14.01,2013-04-14 04:43:00,
2013-04-14 00:48:00,44.1,33.9,29.96,SSE,153,0.0,1.0,67,0.00,,---,0.00,VWS V14.01,2013-04-14 04:48:00,
2013-04-14 00:53:00,44.2,34.0,29.96,SSE,153,0.0,0.0,67,0.00,,---,0.00,VWS V14.01,2013-04-14 04:53:00,
2013-04-14 00:58:00,44.2,33.6,29.97,SSE,155,0.0,3.0,66,0.00,,---,0.00,VWS V14.01,2013-04-14 04:58:00,
2013-04-14 01:03:00,44.3,33.7,29.97,SE,136,2.0,2.0,66,0.00,,---,0.00,VWS V14.01,2013-04-14 05:03:00,
2013-04-14 01:08:00,44.3,33.3,29.97,SSE,155,0.0,2.0,65,0.00,,---,0.00,VWS V14.01,2013-04-14 05:08:00,
2013-04-14 01:13:00,44.5,33.5,29.97,SSE,155,0.0,2.0,65,0.00,,---,0.00,VWS V14.01,2013-04-14 05:13:00,
2013-04-14 01:19:00,44.6,33.6,29.97,SSE,153,0.0,0.0,65,0.00,,---,0.00,VWS V14.01,2013-04-14 05:19:00,
2013-04-14 01:24:00,44.8,33.4,29.97,South,169,0.0,1.0,64,0.00,,---,0.00,VWS V14.01,2013-04-14 05:24:00,
2013-04-14 01:29:00,44.8,33.4,29.97,South,169,1.0,1.0,64,0.00,,---,0.00,VWS V14.01,2013-04-14 05:29:00,
2013-04-14 01:34:00,44.8,33.4,29.97,South,169,1.0,2.0,64,0.00,,---,0.00,VWS V14.01,2013-04-14 05:34:00,
2013-04-14 01:39:00,44.9,33.5,29.97,South,169,0.0,0.0,64,0.00,,---,0.00,VWS V14.01,2013-04-14 05:39:00,
2013-04-14 01:45:00,44.9,33.5,29.96,South,169,0.0,0.0,64,0.00,,---,0.00,VWS V14.01,2013-04-14 05:45:00,
2013-04-14 01:50:00,44.9,33.1,29.96,South,169,0.0,0.0,63,0.00,,---,0.00,VWS V14.01,2013-04-14 05:50:00,
2013-04-14 01:55:00,44.9,33.5,29.96,South,169,0.0,0.0,64,0.00,,---,0.00,VWS V14.01,2013-04-14 05:55:00,
2013-04-14 02:00:00,44.9,33.5,29.96,South,169,0.0,1.0,64,0.00,,---,0.00,VWS V14.01,2013-04-14 06:00:00,
2013-04-14 02:05:00,45.1,33.7,29.96,South,169,2.0,2.0,64,0.00,,---,0.00,VWS V14.01,2013-04-14 06:05:00,
2013-04-14 02:10:00,45.1,33.7,29.96,SSE,165,0.0,3.0,64,0.00,,---,0.00,VWS V14.01,2013-04-14 06:10:00,
2013-04-14 02:15:00,45.1,33.7,29.96,SSE,165,0.0,1.0,64,0.00,,---,0.00,VWS V14.01,2013-04-14 06:15:00,
2013-04-14 02:20:00,45.1,33.3,29.96,SSE,165,0.0,0.0,63,0.00,,---,0.00,VWS V14.01,2013-04-14 06:20:00,
2013-04-14 02:25:00,45.1,33.7,29.96,SSE,165,0.0,0.0,64,0.00,,---,0.00,VWS V14.01,2013-04-14 06:25:00,
2013-04-14 02:30:00,45.1,33.7,29.96,SSE,165,0.0,0.0,64,0.00,,---,0.00,VWS V14.01,2013-04-14 06:30:00,
2013-04-14 02:35:00,45.1,33.7,29.96,SSE,165,0.0,0.0,64,0.00,,---,0.00,VWS V14.01,2013-04-14 06:35:00,
2013-04-14 02:40:00,45.1,33.7,29.96,SSE,165,0.0,0.0,64,0.00,,---,0.00,VWS V14.01,2013-04-14 06:40:00,
2013-04-14 02:45:00,45.1,33.7,29.96,SSE,147,2.0,4.0,64,0.00,,---,0.00,VWS V14.01,2013-04-14 06:45:00,
2013-04-14 02:50:00,45.1,33.7,29.96,South,179,0.0,4.0,64,0.00,,---,0.00,VWS V14.01,2013-04-14 06:50:00,
2013-04-14 02:55:00,45.2,33.8,29.95,South,179,0.0,0.0,64,0.00,,---,0.00,VWS V14.01,2013-04-14 06:55:00,
2013-04-14 03:00:00,45.4,34.0,29.95,SSE,150,5.0,5.0,64,0.00,,---,0.00,VWS V14.01,2013-04-14 07:00:00,
2013-04-14 03:05:00,45.4,33.6,29.95,SSE,165,0.0,3.0,63,0.00,,---,0.00,VWS V14.01,2013-04-14 07:05:00,
2013-04-14 03:11:00,45.5,34.0,29.95,SSE,165,0.0,2.0,64,0.00,,---,0.00,VWS V14.01,2013-04-14 07:11:00,
2013-04-14 03:16:00,45.5,33.7,29.95,SSE,164,2.0,2.0,63,0.00,,---,0.00,VWS V14.01,2013-04-14 07:16:00,
2013-04-14 03:21:00,45.7,33.8,29.95,SSE,164,0.0,0.0,63,0.00,,---,0.00,VWS V14.01,2013-04-14 07:21:00,
2013-04-14 03:26:00,45.7,33.8,29.95,SSE,164,0.0,0.0,63,0.00,,---,0.00,VWS V14.01,2013-04-14 07:26:00,
2013-04-14 03:32:00,45.7,33.4,29.95,SSE,164,0.0,0.0,62,0.00,,---,0.00,VWS V14.01,2013-04-14 07:32:00,
2013-04-14 03:37:00,45.8,33.5,29.94,SSE,164,0.0,0.0,62,0.00,,---,0.00,VWS V14.01,2013-04-14 07:37:00,
2013-04-14 03:42:00,45.8,33.1,29.95,SSE,164,0.0,1.0,61,0.00,,---,0.00,VWS V14.01,2013-04-14 07:42:00,
2013-04-14 03:47:00,46.0,33.3,29.94,SSE,164,0.0,1.0,61,0.00,,---,0.00,VWS V14.01,2013-04-14 07:47:00,
2013-04-14 03:53:00,46.0,33.3,29.95,SSE,164,0.0,0.0,61,0.00,,---,0.00,VWS V14.01,2013-04-14 07:53:00,
2013-04-14 03:58:00,46.1,33.0,29.95,SSE,164,0.0,0.0,60,0.00,,---,0.00,VWS V14.01,2013-04-14 07:58:00,
2013-04-14 04:03:00,46.2,32.7,29.95,SSE,167,0.0,0.0,59,0.00,,---,0.00,VWS V14.01,2013-04-14 08:03:00,
2013-04-14 04:08:00,46.2,32.7,29.95,SSE,167,0.0,1.0,59,0.00,,---,0.00,VWS V14.01,2013-04-14 08:08:00,
2013-04-14 04:13:00,46.4,32.4,29.95,South,190,0.0,2.0,58,0.00,,---,0.00,VWS V14.01,2013-04-14 08:13:00,
2013-04-14 04:18:00,46.7,32.3,29.95,South,190,0.0,2.0,57,0.00,,---,0.00,VWS V14.01,2013-04-14 08:18:00,
2013-04-14 04:23:00,46.8,32.0,29.95,South,190,0.0,0.0,56,0.00,,---,0.00,VWS V14.01,2013-04-14 08:23:00,
2013-04-14 04:28:00,46.8,32.0,29.95,South,190,0.0,0.0,56,0.00,,---,0.00,VWS V14.01,2013-04-14 08:28:00,
2013-04-14 04:33:00,47.0,31.7,29.95,South,190,0.0,0.0,55,0.00,,---,0.00,VWS V14.01,2013-04-14 08:33:00,
2013-04-14 04:39:00,47.0,31.7,29.95,South,190,0.0,0.0,55,0.00,,---,0.00,VWS V14.01,2013-04-14 08:39:00,
2013-04-14 04:44:00,47.1,31.3,29.95,South,190,0.0,1.0,54,0.00,,---,0.00,VWS V14.01,2013-04-14 08:44:00,
2013-04-14 04:49:00,47.1,31.3,29.95,South,190,0.0,0.0,54,0.00,,---,0.00,VWS V14.01,2013-04-14 08:49:00,
2013-04-14 04:55:00,47.1,31.3,29.96,West,265,1.0,3.0,54,0.00,,---,0.00,VWS V14.01,2013-04-14 08:55:00,
2013-04-14 05:00:00,47.3,31.0,29.96,WSW,253,0.0,0.0,53,0.00,,---,0.00,VWS V14.01,2013-04-14 09:00:00,
2013-04-14 05:05:00,47.3,31.0,29.96,WSW,253,0.0,2.0,53,0.00,,---,0.00,VWS V14.01,2013-04-14 09:05:00,
2013-04-14 05:10:00,47.3,31.0,29.96,WSW,253,0.0,0.0,53,0.00,,---,0.00,VWS V14.01,2013-04-14 09:10:00,
2013-04-14 05:15:00,47.3,31.0,29.96,WSW,253,0.0,0.0,53,0.00,,---,0.00,VWS V14.01,2013-04-14 09:15:00,
2013-04-14 05:21:00,47.1,30.4,29.97,WSW,253,0.0,1.0,52,0.00,,---,0.00,VWS V14.01,2013-04-14 09:21:00,
2013-04-14 05:26:00,47.1,30.9,29.96,WSW,253,2.0,2.0,53,0.00,,---,0.00,VWS V14.01,2013-04-14 09:26:00,
2013-04-14 05:31:00,47.1,30.9,29.96,WSW,253,0.0,0.0,53,0.00,,---,0.00,VWS V14.01,2013-04-14 09:31:00,
2013-04-14 05:37:00,47.0,30.8,29.96,WSW,253,0.0,0.0,53,0.00,,---,0.00,VWS V14.01,2013-04-14 09:37:00,
2013-04-14 05:42:00,46.8,30.6,29.96,WSW,253,0.0,0.0,53,0.00,,---,0.00,VWS V14.01,2013-04-14 09:42:00,
2013-04-14 05:48:00,46.7,30.5,29.96,WSW,253,0.0,0.0,53,0.00,,---,0.00,VWS V14.01,2013-04-14 09:48:00,
2013-04-14 05:53:00,46.5,30.3,29.96,WSW,253,0.0,0.0,53,0.00,,---,0.00,VWS V14.01,2013-04-14 09:53:00,
2013-04-14 05:58:00,46.4,30.7,29.96,WSW,253,0.0,0.0,54,0.00,,---,0.00,VWS V14.01,2013-04-14 09:58:00,
2013-04-14 06:04:00,46.2,30.5,29.97,WSW,253,0.0,2.0,54,0.00,,---,0.00,VWS V14.01,2013-04-14 10:04:00,
2013-04-14 06:09:00,46.0,30.8,29.97,WSW,253,0.0,1.0,55,0.00,,---,0.00,VWS V14.01,2013-04-14 10:09:00,
2013-04-14 06:15:00,45.8,30.6,29.97,WSW,253,0.0,0.0,55,0.00,,---,0.00,VWS V14.01,2013-04-14 10:15:00,
2013-04-14 06:20:00,45.7,30.9,29.97,WSW,253,0.0,0.0,56,0.00,,---,0.00,VWS V14.01,2013-04-14 10:20:00,
2013-04-14 06:25:00,45.4,30.6,29.97,WSW,253,0.0,0.0,56,0.00,,---,0.00,VWS V14.01,2013-04-14 10:25:00,
2013-04-14 06:31:00,45.1,30.8,29.98,WSW,253,0.0,0.0,57,0.00,,---,0.00,VWS V14.01,2013-04-14 10:31:00,
2013-04-14 06:36:00,44.9,30.6,29.98,WSW,253,0.0,1.0,57,0.00,,---,0.00,VWS V14.01,2013-04-14 10:36:00,
2013-04-14 06:42:00,44.9,31.0,29.98,WSW,253,0.0,0.0,58,0.00,,---,0.00,VWS V14.01,2013-04-14 10:42:00,
2013-04-14 06:47:00,44.8,30.9,29.98,WSW,253,0.0,0.0,58,0.00,,---,0.00,VWS V14.01,2013-04-14 10:47:00,
2013-04-14 06:52:00,44.9,30.6,29.99,WSW,253,0.0,0.0,57,0.00,,---,0.00,VWS V14.01,2013-04-14 10:52:00,
2013-04-14 06:58:00,45.2,30.5,29.99,WSW,253,0.0,0.0,56,0.00,,---,0.00,VWS V14.01,2013-04-14 10:58:00,
2013-04-14 07:03:00,45.4,30.6,29.99,WSW,253,0.0,0.0,56,0.00,,---,0.00,VWS V14.01,2013-04-14 11:03:00,
2013-04-14 07:08:00,45.4,30.6,29.99,WSW,253,0.0,0.0,56,0.00,,---,0.00,VWS V14.01,2013-04-14 11:08:00,
2013-04-14 07:13:00,45.2,31.3,30.00,SW,224,0.0,0.0,58,0.00,,---,0.00,VWS V14.01,2013-04-14 11:13:00,
2013-04-14 07:19:00,44.8,31.8,30.00,SW,224,0.0,0.0,60,0.00,,---,0.00,VWS V14.01,2013-04-14 11:19:00,
2013-04-14 07:24:00,44.6,32.0,30.00,SW,224,0.0,0.0,61,0.00,,---,0.00,VWS V14.01,2013-04-14 11:24:00,
2013-04-14 07:30:00,44.9,31.9,30.00,SW,227,2.0,2.0,60,0.00,,---,0.00,VWS V14.01,2013-04-14 11:30:00,
2013-04-14 07:36:00,45.4,31.5,30.00,SW,227,0.0,3.0,58,0.00,,---,0.00,VWS V14.01,2013-04-14 11:36:00,
2013-04-14 07:41:00,45.7,30.9,30.00,SSW,213,0.0,3.0,56,0.00,,---,0.00,VWS V14.01,2013-04-14 11:41:00,
2013-04-14 07:47:00,46.0,31.2,30.00,WSW,240,0.0,3.0,56,0.00,,---,0.00,VWS V14.01,2013-04-14 11:47:00,
2013-04-14 07:52:00,46.2,30.9,30.00,SW,229,2.0,3.0,55,0.00,,---,0.00,VWS V14.01,2013-04-14 11:52:00,
2013-04-14 07:57:00,46.7,31.0,30.00,South,188,4.0,9.0,54,0.00,,---,0.00,VWS V14.01,2013-04-14 11:57:00,
2013-04-14 08:03:00,47.3,30.6,30.00,SSW,212,4.0,6.0,52,0.00,,---,0.00,VWS V14.01,2013-04-14 12:03:00,
2013-04-14 08:08:00,47.6,30.9,30.00,WSW,240,4.0,4.0,52,0.00,,---,0.00,VWS V14.01,2013-04-14 12:08:00,
2013-04-14 08:13:00,47.6,30.4,30.00,SW,229,4.0,9.0,51,0.00,,---,0.00,VWS V14.01,2013-04-14 12:13:00,
2013-04-14 08:18:00,47.6,31.3,30.01,SW,234,4.0,6.0,53,0.00,,---,0.00,VWS V14.01,2013-04-14 12:18:00,
2013-04-14 08:23:00,47.7,31.0,30.01,WSW,242,6.0,7.0,52,0.00,,---,0.00,VWS V14.01,2013-04-14 12:23:00,
2013-04-14 08:29:00,47.7,31.4,30.01,West,263,4.0,5.0,53,0.00,,---,0.00,VWS V14.01,2013-04-14 12:29:00,
2013-04-14 08:34:00,47.6,31.3,30.01,West,273,6.0,9.0,53,0.00,,---,0.00,VWS V14.01,2013-04-14 12:34:00,
2013-04-14 08:39:00,47.4,31.6,30.01,WSW,240,4.0,5.0,54,0.00,,---,0.00,VWS V14.01,2013-04-14 12:39:00,
2013-04-14 08:44:00,47.3,32.0,30.02,West,259,0.0,1.0,55,0.00,,---,0.00,VWS V14.01,2013-04-14 12:44:00,
2013-04-14 08:49:00,47.1,30.4,30.02,WNW,294,3.0,6.0,52,0.00,,---,0.00,VWS V14.01,2013-04-14 12:49:00,
2013-04-14 08:54:00,47.0,29.3,30.02,WNW,296,4.0,8.0,50,0.00,,---,0.00,VWS V14.01,2013-04-14 12:54:00,
2013-04-14 08:59:00,47.0,29.3,30.02,West,274,2.0,4.0,50,0.00,,---,0.00,VWS V14.01,2013-04-14 12:59:00,
2013-04-14 09:05:00,47.1,27.9,30.02,WSW,258,3.0,7.0,47,0.00,,---,0.00,VWS V14.01,2013-04-14 13:05:00,
2013-04-14 09:10:00,47.1,27.9,30.02,SW,223,2.0,6.0,47,0.00,,---,0.00,VWS V14.01,2013-04-14 13:10:00,
2013-04-14 09:15:00,47.3,29.1,30.02,WNW,286,3.0,5.0,49,0.00,,---,0.00,VWS V14.01,2013-04-14 13:15:00,
2013-04-14 09:20:00,47.3,26.5,30.03,WNW,284,3.0,7.0,44,0.00,,---,0.00,VWS V14.01,2013-04-14 13:20:00,
2013-04-14 09:25:00,47.3,27.0,30.03,WNW,290,3.0,5.0,45,0.00,,---,0.00,VWS V14.01,2013-04-14 13:25:00,
2013-04-14 09:30:00,47.1,27.9,30.03,NW,315,4.0,5.0,47,0.00,,---,0.00,VWS V14.01,2013-04-14 13:30:00,
2013-04-14 09:35:00,47.3,27.6,30.03,SSW,213,8.0,10.0,46,0.00,,---,0.00,VWS V14.01,2013-04-14 13:35:00,
2013-04-14 09:40:00,47.3,27.0,30.03,NW,316,0.0,5.0,45,0.00,,---,0.00,VWS V14.01,2013-04-14 13:40:00,
2013-04-14 09:45:00,47.3,26.5,30.03,NW,312,0.0,3.0,44,0.00,,---,0.00,VWS V14.01,2013-04-14 13:45:00,
2013-04-14 09:50:00,47.3,27.0,30.03,West,261,2.0,3.0,45,0.00,,---,0.00,VWS V14.01,2013-04-14 13:50:00,
2013-04-14 09:55:00,47.3,27.6,30.03,West,271,2.0,3.0,46,0.00,,---,0.00,VWS V14.01,2013-04-14 13:55:00,
2013-04-14 10:01:00,47.6,26.8,30.04,South,191,6.0,11.0,44,0.00,,---,0.00,VWS V14.01,2013-04-14 14:01:00,
2013-04-14 10:06:00,47.4,26.6,30.04,SW,229,6.0,11.0,44,0.00,,---,0.00,VWS V14.01,2013-04-14 14:06:00,
2013-04-14 10:11:00,47.6,27.9,30.04,West,270,1.0,3.0,46,0.00,,---,0.00,VWS V14.01,2013-04-14 14:11:00,
2013-04-14 10:16:00,47.9,26.5,30.04,West,269,2.0,5.0,43,0.00,,---,0.00,VWS V14.01,2013-04-14 14:16:00,
2013-04-14 10:21:00,47.9,27.0,30.04,WNW,282,5.0,5.0,44,0.00,,---,0.00,VWS V14.01,2013-04-14 14:21:00,
2013-04-14 10:26:00,48.3,26.3,30.04,West,271,4.0,5.0,42,0.00,,---,0.00,VWS V14.01,2013-04-14 14:26:00,
2013-04-14 10:32:00,48.3,26.9,30.04,WSW,249,4.0,6.0,43,0.00,,---,0.00,VWS V14.01,2013-04-14 14:32:00,
2013-04-14 10:37:00,48.8,27.9,30.04,West,273,4.0,5.0,44,0.00,,---,0.00,VWS V14.01,2013-04-14 14:37:00,
2013-04-14 10:43:00,49.4,27.9,30.03,West,269,5.0,8.0,43,0.00,,---,0.00,VWS V14.01,2013-04-14 14:43:00,
2013-04-14 10:48:00,49.4,25.5,30.03,West,278,6.0,6.0,39,0.00,,---,0.00,VWS V14.01,2013-04-14 14:48:00,
2013-04-14 10:53:00,49.2,25.3,30.04,West,275,4.0,7.0,39,0.00,,---,0.00,VWS V14.01,2013-04-14 14:53:00,
2013-04-14 10:59:00,49.5,25.6,30.03,West,273,2.0,9.0,39,0.00,,---,0.00,VWS V14.01,2013-04-14 14:59:00,
2013-04-14 11:04:00,49.6,25.0,30.04,WNW,282,5.0,10.0,38,0.00,,---,0.00,VWS V14.01,2013-04-14 15:04:00,
2013-04-14 11:09:00,49.8,26.5,30.04,West,271,1.0,5.0,40,0.00,,---,0.00,VWS V14.01,2013-04-14 15:09:00,
2013-04-14 11:14:00,49.9,25.3,30.04,SW,225,2.0,4.0,38,0.00,,---,0.00,VWS V14.01,2013-04-14 15:14:00,
2013-04-14 11:19:00,50.7,26.7,30.04,WNW,292,4.0,4.0,39,0.00,,---,0.00,VWS V14.01,2013-04-14 15:19:00,
2013-04-14 11:25:00,51.3,24.6,30.04,West,263,3.0,10.0,35,0.00,,---,0.00,VWS V14.01,2013-04-14 15:25:00,
2013-04-14 11:30:00,51.6,28.1,30.04,WNW,299,5.0,11.0,40,0.00,,---,0.00,VWS V14.01,2013-04-14 15:30:00,
2013-04-14 11:35:00,51.6,26.2,30.04,SW,216,11.0,11.0,37,0.00,,---,0.00,VWS V14.01,2013-04-14 15:35:00,
2013-04-14 11:41:00,51.6,28.1,30.05,West,278,5.0,8.0,40,0.00,,---,0.00,VWS V14.01,2013-04-14 15:41:00,
2013-04-14 11:46:00,51.9,25.8,30.05,WNW,296,4.0,7.0,36,0.00,,---,0.00,VWS V14.01,2013-04-14 15:46:00,
2013-04-14 11:52:00,50.8,26.1,30.05,West,272,4.0,5.0,38,0.00,,---,0.00,VWS V14.01,2013-04-14 15:52:00,
2013-04-14 11:57:00,51.3,24.6,30.05,WSW,256,4.0,7.0,35,0.00,,---,0.00,VWS V14.01,2013-04-14 15:57:00,
2013-04-14 12:02:00,50.8,24.1,30.05,WNW,290,4.0,9.0,35,0.00,,---,0.00,VWS V14.01,2013-04-14 16:02:00,
2013-04-14 12:08:00,50.1,25.5,30.05,West,279,5.0,9.0,38,0.00,,---,0.00,VWS V14.01,2013-04-14 16:08:00,
2013-04-14 12:13:00,49.6,25.0,30.06,WNW,284,3.0,6.0,38,0.00,,---,0.00,VWS V14.01,2013-04-14 16:13:00,
2013-04-14 12:18:00,50.1,24.9,30.05,West,263,3.0,6.0,37,0.00,,---,0.00,VWS V14.01,2013-04-14 16:18:00,
2013-04-14 12:23:00,49.9,26.6,30.05,SW,215,6.0,12.0,40,0.00,,---,0.00,VWS V14.01,2013-04-14 16:23:00,
2013-04-14 12:28:00,49.1,24.6,30.05,WNW,300,5.0,5.0,38,0.00,,---,0.00,VWS V14.01,2013-04-14 16:28:00,
2013-04-14 12:34:00,49.1,24.6,30.05,SW,231,1.0,3.0,38,0.00,,---,0.00,VWS V14.01,2013-04-14 16:34:00,
2013-04-14 12:39:00,49.2,27.1,30.05,WSW,244,2.0,3.0,42,0.00,,---,0.00,VWS V14.01,2013-04-14 16:39:00,
2013-04-14 12:44:00,49.9,25.3,30.05,WSW,257,4.0,15.0,38,0.00,,---,0.00,VWS V14.01,2013-04-14 16:44:00,
2013-04-14 12:50:00,50.2,25.6,30.04,NW,315,3.0,4.0,38,0.00,,---,0.00,VWS V14.01,2013-04-14 16:50:00,
2013-04-14 12:55:00,50.4,24.5,30.05,West,271,5.0,10.0,36,0.00,,---,0.00,VWS V14.01,2013-04-14 16:55:00,
2013-04-14 13:01:00,50.8,25.5,30.05,WSW,242,4.0,9.0,37,0.00,,---,0.00,VWS V14.01,2013-04-14 17:01:00,
2013-04-14 13:06:00,50.8,23.5,30.05,WSW,247,3.0,6.0,34,0.00,,---,0.00,VWS V14.01,2013-04-14 17:06:00,
2013-04-14 13:12:00,50.8,24.8,30.05,NNW,340,2.0,4.0,36,0.00,,---,0.00,VWS V14.01,2013-04-14 17:12:00,
2013-04-14 13:18:00,50.5,23.9,30.05,NW,321,7.0,12.0,35,0.00,,---,0.00,VWS V14.01,2013-04-14 17:18:00,
2013-04-14 13:23:00,50.5,26.5,30.05,WSW,252,2.0,6.0,39,0.00,,---,0.00,VWS V14.01,2013-04-14 17:23:00,
2013-04-14 13:29:00,51.0,24.3,30.05,WSW,248,7.0,7.0,35,0.00,,---,0.00,VWS V14.01,2013-04-14 17:29:00,
2013-04-14 13:34:00,50.5,23.9,30.05,NW,311,3.0,5.0,35,0.00,,---,0.00,VWS V14.01,2013-04-14 17:34:00,
2013-04-14 13:40:00,50.7,23.4,30.05,SSW,208,8.0,10.0,34,0.00,,---,0.00,VWS V14.01,2013-04-14 17:40:00,
2013-04-14 13:45:00,51.3,25.3,30.05,WSW,251,5.0,10.0,36,0.00,,---,0.00,VWS V14.01,2013-04-14 17:45:00,
2013-04-14 13:50:00,52.0,24.5,30.05,WNW,290,4.0,8.0,34,0.00,,---,0.00,VWS V14.01,2013-04-14 17:50:00,
2013-04-14 13:55:00,52.3,23.3,30.05,NW,306,0.0,4.0,32,0.00,,---,0.00,VWS V14.01,2013-04-14 17:55:00,
2013-04-14 14:01:00,52.5,24.2,30.06,West,279,3.0,8.0,33,0.00,,---,0.00,VWS V14.01,2013-04-14 18:01:00,
2013-04-14 14:06:00,52.3,23.3,30.05,West,271,8.0,13.0,32,0.00,,---,0.00,VWS V14.01,2013-04-14 18:06:00,
2013-04-14 14:11:00,52.2,24.7,30.05,NW,304,0.0,4.0,34,0.00,,---,0.00,VWS V14.01,2013-04-14 18:11:00,
2013-04-14 14:16:00,52.6,24.3,30.05,SW,232,5.0,7.0,33,0.00,,---,0.00,VWS V14.01,2013-04-14 18:16:00,
2013-04-14 14:21:00,53.1,23.3,30.05,SSW,209,2.0,5.0,31,0.00,,---,0.00,VWS V14.01,2013-04-14 18:21:00,
2013-04-14 14:26:00,52.8,24.5,30.06,SW,224,5.0,6.0,33,0.00,,---,0.00,VWS V14.01,2013-04-14 18:26:00,
2013-04-14 14:32:00,52.6,22.9,30.05,West,278,2.0,11.0,31,0.00,,---,0.00,VWS V14.01,2013-04-14 18:32:00,
2013-04-14 14:37:00,52.3,24.1,30.06,WNW,284,1.0,3.0,33,0.00,,---,0.00,VWS V14.01,2013-04-14 18:37:00,
2013-04-14 14:42:00,52.0,23.8,30.06,SSW,208,4.0,4.0,33,0.00,,---,0.00,VWS V14.01,2013-04-14 18:42:00,
2013-04-14 14:47:00,51.6,24.9,30.06,NW,308,2.0,5.0,35,0.00,,---,0.00,VWS V14.01,2013-04-14 18:47:00,
2013-04-14 14:53:00,51.7,22.8,30.06,WNW,285,4.0,9.0,32,0.00,,---,0.00,VWS V14.01,2013-04-14 18:53:00,
2013-04-14 14:59:00,52.0,24.5,30.06,WNW,283,3.0,9.0,34,0.00,,---,0.00,VWS V14.01,2013-04-14 18:59:00,
2013-04-14 15:05:00,51.3,24.6,30.06,NW,322,3.0,5.0,35,0.00,,---,0.00,VWS V14.01,2013-04-14 19:05:00,
2013-04-14 15:10:00,51.0,22.9,30.06,West,281,6.0,9.0,33,0.00,,---,0.00,VWS V14.01,2013-04-14 19:10:00,
2013-04-14 15:16:00,51.0,23.6,30.06,NW,305,4.0,4.0,34,0.00,,---,0.00,VWS V14.01,2013-04-14 19:16:00,
2013-04-14 15:21:00,51.0,25.0,30.06,SSW,200,6.0,6.0,36,0.00,,---,0.00,VWS V14.01,2013-04-14 19:21:00,
2013-04-14 15:26:00,51.4,24.0,30.06,NW,307,7.0,7.0,34,0.00,,---,0.00,VWS V14.01,2013-04-14 19:26:00,
2013-04-14 15:31:00,52.2,24.7,30.06,West,281,3.0,9.0,34,0.00,,---,0.00,VWS V14.01,2013-04-14 19:31:00,
2013-04-14 15:37:00,53.2,24.1,30.06,NW,316,5.0,15.0,32,0.00,,---,0.00,VWS V14.01,2013-04-14 19:37:00,
2013-04-14 15:42:00,53.3,24.2,30.06,WNW,300,9.0,11.0,32,0.00,,---,0.00,VWS V14.01,2013-04-14 19:42:00,
2013-04-14 15:48:00,52.8,23.8,30.06,NW,310,3.0,8.0,32,0.00,,---,0.00,VWS V14.01,2013-04-14 19:48:00,
2013-04-14 15:53:00,52.8,23.0,30.06,NW,321,3.0,7.0,31,0.00,,---,0.00,VWS V14.01,2013-04-14 19:53:00,
2013-04-14 15:59:00,53.3,23.5,30.07,West,271,0.0,10.0,31,0.00,,---,0.00,VWS V14.01,2013-04-14 19:59:00,
2013-04-14 16:05:00,53.6,25.2,30.06,NNW,333,4.0,6.0,33,0.00,,---,0.00,VWS V14.01,2013-04-14 20:05:00,
2013-04-14 16:10:00,53.9,26.2,30.06,WNW,286,4.0,5.0,34,0.00,,---,0.00,VWS V14.01,2013-04-14 20:10:00,
2013-04-14 16:16:00,53.5,23.6,30.06,NW,318,5.0,7.0,31,0.00,,---,0.00,VWS V14.01,2013-04-14 20:16:00,
2013-04-14 16:21:00,53.2,24.1,30.07,NW,319,4.0,5.0,32,0.00,,---,0.00,VWS V14.01,2013-04-14 20:21:00,
2013-04-14 16:26:00,53.3,23.5,30.07,West,277,4.0,9.0,31,0.00,,---,0.00,VWS V14.01,2013-04-14 20:26:00,
2013-04-14 16:32:00,53.1,24.8,30.07,WSW,252,4.0,9.0,33,0.00,,---,0.00,VWS V14.01,2013-04-14 20:32:00,
2013-04-14 16:38:00,53.5,24.4,30.08,NE,35,2.0,10.0,32,0.00,,---,0.00,VWS V14.01,2013-04-14 20:38:00,
2013-04-14 16:43:00,52.5,23.5,30.08,NNW,341,0.0,7.0,32,0.00,,---,0.00,VWS V14.01,2013-04-14 20:43:00,
2013-04-14 16:48:00,52.5,24.2,30.08,WSW,243,4.0,5.0,33,0.00,,---,0.00,VWS V14.01,2013-04-14 20:48:00,
2013-04-14 16:54:00,52.6,24.3,30.09,NW,304,3.0,7.0,33,0.00,,---,0.00,VWS V14.01,2013-04-14 20:54:00,
2013-04-14 16:59:00,52.8,23.8,30.09,West,260,1.0,5.0,32,0.00,,---,0.00,VWS V14.01,2013-04-14 20:59:00,
2013-04-14 17:05:00,53.2,24.9,30.09,West,270,5.0,5.0,33,0.00,,---,0.00,VWS V14.01,2013-04-14 21:05:00,
2013-04-14 17:10:00,53.3,23.5,30.09,West,262,3.0,6.0,31,0.00,,---,0.00,VWS V14.01,2013-04-14 21:10:00,
2013-04-14 17:15:00,53.1,24.8,30.10,West,273,3.0,6.0,33,0.00,,---,0.00,VWS V14.01,2013-04-14 21:15:00,
2013-04-14 17:20:00,53.1,25.5,30.10,WNW,287,3.0,6.0,34,0.00,,---,0.00,VWS V14.01,2013-04-14 21:20:00,
2013-04-14 17:25:00,52.9,23.9,30.10,NW,309,1.0,6.0,32,0.00,,---,0.00,VWS V14.01,2013-04-14 21:25:00,
2013-04-14 17:31:00,52.8,23.8,30.10,NE,40,1.0,4.0,32,0.00,,---,0.00,VWS V14.01,2013-04-14 21:31:00,
2013-04-14 17:36:00,52.9,23.9,30.10,NW,309,0.0,5.0,32,0.00,,---,0.00,VWS V14.01,2013-04-14 21:36:00,
2013-04-14 17:41:00,52.8,23.8,30.10,West,281,3.0,4.0,32,0.00,,---,0.00,VWS V14.01,2013-04-14 21:41:00,
2013-04-14 17:46:00,52.6,24.3,30.10,NNW,343,5.0,5.0,33,0.00,,---,0.00,VWS V14.01,2013-04-14 21:46:00,
2013-04-14 17:51:00,52.5,23.5,30.10,NNW,333,6.0,6.0,32,0.00,,---,0.00,VWS V14.01,2013-04-14 21:51:00,
2013-04-14 17:57:00,52.3,23.3,30.10,NW,304,6.0,6.0,32,0.00,,---,0.00,VWS V14.01,2013-04-14 21:57:00,
2013-04-14 18:02:00,52.3,24.8,30.11,WNW,302,3.0,3.0,34,0.00,,---,0.00,VWS V14.01,2013-04-14 22:02:00,
2013-04-14 18:07:00,51.9,24.4,30.11,West,270,4.0,4.0,34,0.00,,---,0.00,VWS V14.01,2013-04-14 22:07:00,
2013-04-14 18:12:00,51.3,23.2,30.11,WNW,303,0.0,7.0,33,0.00,,---,0.00,VWS V14.01,2013-04-14 22:12:00,
2013-04-14 18:17:00,51.0,23.6,30.11,West,270,1.0,6.0,34,0.00,,---,0.00,VWS V14.01,2013-04-14 22:17:00,
2013-04-14 18:22:00,50.5,23.9,30.12,WNW,292,4.0,5.0,35,0.00,,---,0.00,VWS V14.01,2013-04-14 22:22:00,
2013-04-14 18:28:00,50.5,23.9,30.11,West,280,2.0,3.0,35,0.00,,---,0.00,VWS V14.01,2013-04-14 22:28:00,
2013-04-14 18:33:00,50.4,23.8,30.12,West,273,1.0,4.0,35,0.00,,---,0.00,VWS V14.01,2013-04-14 22:33:00,
2013-04-14 18:38:00,50.1,23.5,30.12,WNW,292,2.0,6.0,35,0.00,,---,0.00,VWS V14.01,2013-04-14 22:38:00,
2013-04-14 18:43:00,49.5,23.0,30.12,NW,311,2.0,3.0,35,0.00,,---,0.00,VWS V14.01,2013-04-14 22:43:00,
2013-04-14 18:48:00,49.1,23.3,30.12,WNW,294,2.0,4.0,36,0.00,,---,0.00,VWS V14.01,2013-04-14 22:48:00,
2013-04-14 18:53:00,48.8,23.7,30.13,NW,319,0.0,5.0,37,0.00,,---,0.00,VWS V14.01,2013-04-14 22:53:00,
2013-04-14 18:58:00,48.6,23.5,30.13,North,351,5.0,10.0,37,0.00,,---,0.00,VWS V14.01,2013-04-14 22:58:00,
2013-04-14 19:03:00,48.5,24.1,30.13,WNW,287,0.0,0.0,38,0.00,,---,0.00,VWS V14.01,2013-04-14 23:03:00,
2013-04-14 19:08:00,48.3,23.9,30.14,West,265,0.0,2.0,38,0.00,,---,0.00,VWS V14.01,2013-04-14 23:08:00,
2013-04-14 19:13:00,47.9,23.5,30.14,West,280,2.0,3.0,38,0.00,,---,0.00,VWS V14.01,2013-04-14 23:13:00,
2013-04-14 19:18:00,47.6,23.9,30.14,WNW,288,0.0,5.0,39,0.00,,---,0.00,VWS V14.01,2013-04-14 23:18:00,
2013-04-14 19:23:00,47.3,24.2,30.14,NW,312,0.0,0.0,40,0.00,,---,0.00,VWS V14.01,2013-04-14 23:23:00,
2013-04-14 19:28:00,47.1,24.0,30.15,NW,312,0.0,0.0,40,0.00,,---,0.00,VWS V14.01,2013-04-14 23:28:00,
2013-04-14 19:33:00,46.8,23.8,30.15,NW,317,0.0,0.0,40,0.00,,---,0.00,VWS V14.01,2013-04-14 23:33:00,
2013-04-14 19:38:00,46.5,24.1,30.16,North,355,0.0,0.0,41,0.00,,---,0.00,VWS V14.01,2013-04-14 23:38:00,
2013-04-14 19:43:00,46.4,24.0,30.16,NNW,336,0.0,0.0,41,0.00,,---,0.00,VWS V14.01,2013-04-14 23:43:00,
2013-04-14 19:49:00,46.0,23.6,30.17,NW,325,1.0,1.0,41,0.00,,---,0.00,VWS V14.01,2013-04-14 23:49:00,
2013-04-14 19:55:00,45.7,23.9,30.17,WNW,300,1.0,5.0,42,0.00,,---,0.00,VWS V14.01,2013-04-14 23:55:00,
2013-04-14 20:00:00,45.4,23.7,30.17,NNW,343,0.0,3.0,42,0.00,,---,0.00,VWS V14.01,2013-04-15 00:00:00,
2013-04-14 20:05:00,45.1,23.4,30.17,NNW,329,2.0,2.0,42,0.00,,---,0.00,VWS V14.01,2013-04-15 00:05:00,
2013-04-14 20:10:00,44.9,23.8,30.18,NNW,335,0.0,0.0,43,0.00,,---,0.00,VWS V14.01,2013-04-15 00:10:00,
2013-04-14 20:16:00,44.8,24.2,30.18,NNW,335,1.0,1.0,44,0.00,,---,0.00,VWS V14.01,2013-04-15 00:16:00,
2013-04-14 20:22:00,44.5,24.0,30.18,NNW,335,0.0,0.0,44,0.00,,---,0.00,VWS V14.01,2013-04-15 00:22:00,
2013-04-14 20:28:00,44.2,23.7,30.19,NNW,342,0.0,2.0,44,0.00,,---,0.00,VWS V14.01,2013-04-15 00:28:00,
2013-04-14 20:33:00,44.1,24.1,30.19,NNW,347,1.0,3.0,45,0.00,,---,0.00,VWS V14.01,2013-04-15 00:33:00,
2013-04-14 20:38:00,43.9,24.0,30.19,NNW,347,0.0,0.0,45,0.00,,---,0.00,VWS V14.01,2013-04-15 00:38:00,
2013-04-14 20:43:00,43.6,23.7,30.19,NNW,347,0.0,0.0,45,0.00,,---,0.00,VWS V14.01,2013-04-15 00:43:00,
2013-04-14 20:49:00,43.5,24.1,30.20,NNW,347,0.0,0.0,46,0.00,,---,0.00,VWS V14.01,2013-04-15 00:49:00,
2013-04-14 20:55:00,43.2,23.8,30.20,North,355,0.0,0.0,46,0.00,,---,0.00,VWS V14.01,2013-04-15 00:55:00,
2013-04-14 21:00:00,43.1,24.3,30.20,NW,325,0.0,0.0,47,0.00,,---,0.00,VWS V14.01,2013-04-15 01:00:00,
2013-04-14 21:05:00,42.9,24.1,30.20,NNW,336,0.0,1.0,47,0.00,,---,0.00,VWS V14.01,2013-04-15 01:05:00,
2013-04-14 21:10:00,42.6,23.8,30.21,NNW,330,0.0,1.0,47,0.00,,---,0.00,VWS V14.01,2013-04-15 01:10:00,
2013-04-14 21:15:00,42.5,23.7,30.21,NNW,330,0.0,0.0,47,0.00,,---,0.00,VWS V14.01,2013-04-15 01:15:00,
2013-04-14 21:20:00,42.5,23.7,30.21,NNW,330,0.0,0.0,47,0.00,,---,0.00,VWS V14.01,2013-04-15 01:20:00,
2013-04-14 21:25:00,42.2,23.4,30.21,NNW,330,0.0,0.0,47,0.00,,---,0.00,VWS V14.01,2013-04-15 01:25:00,
2013-04-14 21:30:00,42.1,23.3,30.22,NNW,330,0.0,0.0,47,0.00,,---,0.00,VWS V14.01,2013-04-15 01:30:00,
2013-04-14 21:35:00,41.9,23.2,30.21,NNW,330,0.0,0.0,47,0.00,,---,0.00,VWS V14.01,2013-04-15 01:35:00,
2013-04-14 21:40:00,41.8,23.6,30.21,NNW,330,0.0,0.0,48,0.00,,---,0.00,VWS V14.01,2013-04-15 01:40:00,
2013-04-14 21:45:00,41.6,23.9,30.21,NNW,330,0.0,0.0,49,0.00,,---,0.00,VWS V14.01,2013-04-15 01:45:00,
2013-04-14 21:51:00,41.3,23.6,30.21,NNW,330,0.0,0.0,49,0.00,,---,0.00,VWS V14.01,2013-04-15 01:51:00,
2013-04-14 21:56:00,41.2,24.0,30.21,NNW,330,0.0,0.0,50,0.00,,---,0.00,VWS V14.01,2013-04-15 01:56:00,
2013-04-14 22:01:00,41.1,23.4,30.21,NNW,330,0.0,0.0,49,0.00,,---,0.00,VWS V14.01,2013-04-15 02:01:00,
2013-04-14 22:06:00,40.9,23.7,30.21,NNW,330,0.0,0.0,50,0.00,,---,0.00,VWS V14.01,2013-04-15 02:06:00,
2013-04-14 22:11:00,40.9,23.7,30.21,NNW,330,1.0,1.0,50,0.00,,---,0.00,VWS V14.01,2013-04-15 02:11:00,
2013-04-14 22:17:00,40.8,24.1,30.21,NNW,330,0.0,0.0,51,0.00,,---,0.00,VWS V14.01,2013-04-15 02:17:00,
2013-04-14 22:22:00,40.8,24.5,30.21,NNW,330,0.0,0.0,52,0.00,,---,0.00,VWS V14.01,2013-04-15 02:22:00,
2013-04-14 22:28:00,40.5,24.3,30.22,NNW,330,0.0,0.0,52,0.00,,---,0.00,VWS V14.01,2013-04-15 02:28:00,
2013-04-14 22:33:00,40.5,24.7,30.22,NNW,330,0.0,0.0,53,0.00,,---,0.00,VWS V14.01,2013-04-15 02:33:00,
2013-04-14 22:39:00,40.3,24.5,30.22,NNW,330,0.0,0.0,53,0.00,,---,0.00,VWS V14.01,2013-04-15 02:39:00,
2013-04-14 22:44:00,40.1,24.8,30.23,NNW,330,0.0,0.0,54,0.00,,---,0.00,VWS V14.01,2013-04-15 02:44:00,
2013-04-14 22:49:00,39.9,25.1,30.22,NNW,330,0.0,0.0,55,0.00,,---,0.00,VWS V14.01,2013-04-15 02:49:00,
2013-04-14 22:55:00,39.6,25.2,30.22,NNW,330,0.0,0.0,56,0.00,,---,0.00,VWS V14.01,2013-04-15 02:55:00,
2013-04-14 23:01:00,39.3,24.9,30.22,NNW,330,0.0,0.0,56,0.00,,---,0.00,VWS V14.01,2013-04-15 03:01:00,
2013-04-14 23:06:00,39.2,25.3,30.22,NNW,330,0.0,0.0,57,0.00,,---,0.00,VWS V14.01,2013-04-15 03:06:00,
2013-04-14 23:11:00,38.9,25.8,30.22,NNW,330,0.0,0.0,59,0.00,,---,0.00,VWS V14.01,2013-04-15 03:11:00,
2013-04-14 23:16:00,38.6,25.5,30.22,NNW,330,0.0,0.0,59,0.00,,---,0.00,VWS V14.01,2013-04-15 03:16:00,
2013-04-14 23:22:00,38.3,24.8,30.21,NNW,330,0.0,0.0,58,0.00,,---,0.00,VWS V14.01,2013-04-15 03:22:00,
2013-04-14 23:28:00,38.2,25.1,30.21,NNW,330,0.0,0.0,59,0.00,,---,0.00,VWS V14.01,2013-04-15 03:28:00,
2013-04-14 23:33:00,38.0,25.0,30.21,NW,315,0.0,0.0,59,0.00,,---,0.00,VWS V14.01,2013-04-15 03:33:00,
2013-04-14 23:39:00,37.9,24.9,30.22,NW,315,0.0,0.0,59,0.00,,---,0.00,VWS V14.01,2013-04-15 03:39:00,
2013-04-14 23:45:00,37.8,24.8,30.22,NW,315,0.0,0.0,59,0.00,,---,0.00,VWS V14.01,2013-04-15 03:45:00,
2013-04-14 23:50:00,37.6,24.6,30.22,NW,315,0.0,0.0,59,0.00,,---,0.00,VWS V14.01,2013-04-15 03:50:00,
2013-04-14 23:55:00,37.6,25.0,30.22,North,355,0.0,0.0,60,0.00,,---,0.00,VWS V14.01,2013-04-15 03:55:00,